Year,Month,Day,Hour,Minute,Value (Times are PST for temperature in C)
2015,02,16,00,00,8.50
2015,02,16,00,01,8.50
2015,02,16,00,02,8.50
2015,02,16,00,03,8.50
2015,02,16,00,04,8.50
2015,02,16,00,05,8.50
2015,02,16,00,06,8.50
2015,02,16,00,07,8.50
2015,02,16,00,08,8.50
2015,02,16,00,09,8.50
2015,02,16,00,10,8.50
2015,02,16,00,11,8.50
2015,02,16,00,12,8.50
2015,02,16,00,13,8.50
2015,02,16,00,14,8.40
2015,02,16,00,15,8.40
2015,02,16,00,16,8.40
2015,02,16,00,17,8.40
2015,02,16,00,18,8.40
2015,02,16,00,19,8.40
2015,02,16,00,20,8.30
2015,02,16,00,21,8.30
2015,02,16,00,22,8.30
2015,02,16,00,23,8.20
2015,02,16,00,24,8.20
2015,02,16,00,25,8.20
2015,02,16,00,26,8.10
2015,02,16,00,27,8.10
2015,02,16,00,28,8.10
2015,02,16,00,29,8.00
2015,02,16,00,30,7.90
2015,02,16,00,31,7.90
2015,02,16,00,32,7.90
2015,02,16,00,33,7.80
2015,02,16,00,34,7.70
2015,02,16,00,35,7.70
2015,02,16,00,36,7.60
2015,02,16,00,37,7.50
2015,02,16,00,38,7.50
2015,02,16,00,39,7.40
2015,02,16,00,40,7.40
2015,02,16,00,41,7.30
2015,02,16,00,42,7.30
2015,02,16,00,43,7.30
2015,02,16,00,44,7.30
2015,02,16,00,45,7.20
2015,02,16,00,46,7.20
2015,02,16,00,47,7.20
2015,02,16,00,48,7.10
2015,02,16,00,49,7.10
2015,02,16,00,50,7.10
2015,02,16,00,51,7.10
2015,02,16,00,52,7.00
2015,02,16,00,53,7.00
2015,02,16,00,54,6.90
2015,02,16,00,55,6.90
2015,02,16,00,56,6.80
2015,02,16,00,57,6.80
2015,02,16,00,58,6.70
2015,02,16,00,59,6.70
2015,02,16,01,00,6.70
2015,02,16,01,01,6.60
2015,02,16,01,02,6.60
2015,02,16,01,03,6.60
2015,02,16,01,04,6.50
2015,02,16,01,05,6.50
2015,02,16,01,06,6.50
2015,02,16,01,07,6.40
2015,02,16,01,08,6.40
2015,02,16,01,09,6.40
2015,02,16,01,10,6.40
2015,02,16,01,11,6.30
2015,02,16,01,12,6.30
2015,02,16,01,13,6.30
2015,02,16,01,14,6.30
2015,02,16,01,15,6.30
2015,02,16,01,16,6.30
2015,02,16,01,17,6.30
2015,02,16,01,18,6.30
2015,02,16,01,19,6.20
2015,02,16,01,20,6.20
2015,02,16,01,21,6.20
2015,02,16,01,22,6.20
2015,02,16,01,23,6.10
2015,02,16,01,24,6.10
2015,02,16,01,25,6.10
2015,02,16,01,26,6.10
2015,02,16,01,27,6.00
2015,02,16,01,28,6.00
2015,02,16,01,29,6.00
2015,02,16,01,30,5.90
2015,02,16,01,31,5.90
2015,02,16,01,32,5.90
2015,02,16,01,33,5.90
2015,02,16,01,34,5.80
2015,02,16,01,35,5.80
2015,02,16,01,36,5.80
2015,02,16,01,37,5.70
2015,02,16,01,38,5.70
2015,02,16,01,39,5.60
2015,02,16,01,40,5.60
2015,02,16,01,41,5.50
2015,02,16,01,42,5.50
2015,02,16,01,43,5.50
2015,02,16,01,44,5.40
2015,02,16,01,45,5.40
2015,02,16,01,46,5.40
2015,02,16,01,47,5.40
2015,02,16,01,48,5.30
2015,02,16,01,49,5.30
2015,02,16,01,50,5.30
2015,02,16,01,51,5.30
2015,02,16,01,52,5.30
2015,02,16,01,53,5.20
2015,02,16,01,54,5.20
2015,02,16,01,55,5.20
2015,02,16,01,56,5.20
2015,02,16,01,57,5.20
2015,02,16,01,58,5.20
2015,02,16,01,59,5.10
2015,02,16,02,00,5.10
2015,02,16,02,01,5.10
2015,02,16,02,02,5.10
2015,02,16,02,03,5.10
2015,02,16,02,04,5.00
2015,02,16,02,05,5.00
2015,02,16,02,06,4.90
2015,02,16,02,07,4.90
2015,02,16,02,08,4.90
2015,02,16,02,09,4.80
2015,02,16,02,10,4.80
2015,02,16,02,11,4.80
2015,02,16,02,12,4.80
2015,02,16,02,13,4.80
2015,02,16,02,14,4.80
2015,02,16,02,15,4.80
2015,02,16,02,16,4.80
2015,02,16,02,17,4.70
2015,02,16,02,18,4.70
2015,02,16,02,19,4.70
2015,02,16,02,20,4.70
2015,02,16,02,21,4.70
2015,02,16,02,22,4.70
2015,02,16,02,23,4.60
2015,02,16,02,24,4.60
2015,02,16,02,25,4.60
2015,02,16,02,26,4.60
2015,02,16,02,27,4.50
2015,02,16,02,28,4.50
2015,02,16,02,29,4.50
2015,02,16,02,30,4.50
2015,02,16,02,31,4.50
2015,02,16,02,32,4.40
2015,02,16,02,33,4.40
2015,02,16,02,34,4.40
2015,02,16,02,35,4.40
2015,02,16,02,36,4.40
2015,02,16,02,37,4.40
2015,02,16,02,38,4.40
2015,02,16,02,39,4.40
2015,02,16,02,40,4.40
2015,02,16,02,41,4.40
2015,02,16,02,42,4.40
2015,02,16,02,43,4.40
2015,02,16,02,44,4.40
2015,02,16,02,45,4.40
2015,02,16,02,46,4.40
2015,02,16,02,47,4.40
2015,02,16,02,48,4.40
2015,02,16,02,49,4.40
2015,02,16,02,50,4.40
2015,02,16,02,51,4.40
2015,02,16,02,52,4.40
2015,02,16,02,53,4.40
2015,02,16,02,54,4.40
2015,02,16,02,55,4.40
2015,02,16,02,56,4.40
2015,02,16,02,57,4.40
2015,02,16,02,58,4.40
2015,02,16,02,59,4.40
2015,02,16,03,00,4.40
2015,02,16,03,01,4.40
2015,02,16,03,02,4.40
2015,02,16,03,03,4.40
2015,02,16,03,04,4.40
2015,02,16,03,05,4.30
2015,02,16,03,06,4.30
2015,02,16,03,07,4.30
2015,02,16,03,08,4.30
2015,02,16,03,09,4.30
2015,02,16,03,10,4.30
2015,02,16,03,11,4.30
2015,02,16,03,12,4.30
2015,02,16,03,13,4.30
2015,02,16,03,14,4.30
2015,02,16,03,15,4.30
2015,02,16,03,16,4.20
2015,02,16,03,17,4.20
2015,02,16,03,18,4.20
2015,02,16,03,19,4.20
2015,02,16,03,20,4.20
2015,02,16,03,21,4.20
2015,02,16,03,22,4.20
2015,02,16,03,23,4.20
2015,02,16,03,24,4.20
2015,02,16,03,25,4.20
2015,02,16,03,26,4.20
2015,02,16,03,27,4.20
2015,02,16,03,28,4.20
2015,02,16,03,29,4.20
2015,02,16,03,30,4.20
2015,02,16,03,31,4.20
2015,02,16,03,32,4.20
2015,02,16,03,33,4.20
2015,02,16,03,34,4.20
2015,02,16,03,35,4.20
2015,02,16,03,36,4.20
2015,02,16,03,37,4.10
2015,02,16,03,38,4.10
2015,02,16,03,39,4.10
2015,02,16,03,40,4.10
2015,02,16,03,41,4.10
2015,02,16,03,42,4.10
2015,02,16,03,43,4.10
2015,02,16,03,44,4.10
2015,02,16,03,45,4.10
2015,02,16,03,46,4.10
2015,02,16,03,47,4.10
2015,02,16,03,48,4.10
2015,02,16,03,49,4.10
2015,02,16,03,50,4.10
2015,02,16,03,51,4.10
2015,02,16,03,52,4.10
2015,02,16,03,53,4.10
2015,02,16,03,54,4.10
2015,02,16,03,55,4.10
2015,02,16,03,56,4.10
2015,02,16,03,57,4.10
2015,02,16,03,58,4.00
2015,02,16,03,59,4.00
2015,02,16,04,00,4.00
2015,02,16,04,01,4.00
2015,02,16,04,02,4.00
2015,02,16,04,03,4.00
2015,02,16,04,04,4.00
2015,02,16,04,05,4.00
2015,02,16,04,06,4.00
2015,02,16,04,07,4.00
2015,02,16,04,08,4.00
2015,02,16,04,09,4.00
2015,02,16,04,10,4.00
2015,02,16,04,11,4.00
2015,02,16,04,12,4.00
2015,02,16,04,13,4.00
2015,02,16,04,14,3.90
2015,02,16,04,15,3.90
2015,02,16,04,16,3.90
2015,02,16,04,17,3.90
2015,02,16,04,18,3.90
2015,02,16,04,19,3.90
2015,02,16,04,20,3.90
2015,02,16,04,21,3.80
2015,02,16,04,22,3.80
2015,02,16,04,23,3.80
2015,02,16,04,24,3.80
2015,02,16,04,25,3.80
2015,02,16,04,26,3.80
2015,02,16,04,27,3.80
2015,02,16,04,28,3.80
2015,02,16,04,29,3.80
2015,02,16,04,30,3.80
2015,02,16,04,31,3.80
2015,02,16,04,32,3.80
2015,02,16,04,33,3.70
2015,02,16,04,34,3.70
2015,02,16,04,35,3.70
2015,02,16,04,36,3.70
2015,02,16,04,37,3.70
2015,02,16,04,38,3.70
2015,02,16,04,39,3.80
2015,02,16,04,40,3.80
2015,02,16,04,41,3.80
2015,02,16,04,42,3.80
2015,02,16,04,43,3.80
2015,02,16,04,44,3.80
2015,02,16,04,45,3.80
2015,02,16,04,46,3.70
2015,02,16,04,47,3.70
2015,02,16,04,48,3.70
2015,02,16,04,49,3.70
2015,02,16,04,50,3.60
2015,02,16,04,51,3.60
2015,02,16,04,52,3.60
2015,02,16,04,53,3.50
2015,02,16,04,54,3.50
2015,02,16,04,55,3.40
2015,02,16,04,56,3.40
2015,02,16,04,57,3.40
2015,02,16,04,58,3.40
2015,02,16,04,59,3.40
2015,02,16,05,00,3.40
2015,02,16,05,01,3.40
2015,02,16,05,02,3.40
2015,02,16,05,03,3.40
2015,02,16,05,04,3.40
2015,02,16,05,05,3.40
2015,02,16,05,06,3.40
2015,02,16,05,07,3.40
2015,02,16,05,08,3.40
2015,02,16,05,09,3.40
2015,02,16,05,10,3.40
2015,02,16,05,11,3.40
2015,02,16,05,12,3.40
2015,02,16,05,13,3.40
2015,02,16,05,14,3.40
2015,02,16,05,15,3.40
2015,02,16,05,16,3.40
2015,02,16,05,17,3.40
2015,02,16,05,18,3.40
2015,02,16,05,19,3.40
2015,02,16,05,20,3.40
2015,02,16,05,21,3.40
2015,02,16,05,22,3.40
2015,02,16,05,23,3.40
2015,02,16,05,24,3.40
2015,02,16,05,25,3.40
2015,02,16,05,26,3.40
2015,02,16,05,27,3.40
2015,02,16,05,28,3.40
2015,02,16,05,29,3.30
2015,02,16,05,30,3.30
2015,02,16,05,31,3.30
2015,02,16,05,32,3.30
2015,02,16,05,33,3.30
2015,02,16,05,34,3.30
2015,02,16,05,35,3.30
2015,02,16,05,36,3.30
2015,02,16,05,37,3.30
2015,02,16,05,38,3.30
2015,02,16,05,39,3.20
2015,02,16,05,40,3.20
2015,02,16,05,41,3.20
2015,02,16,05,42,3.20
2015,02,16,05,43,3.20
2015,02,16,05,44,3.20
2015,02,16,05,45,3.20
2015,02,16,05,46,3.20
2015,02,16,05,47,3.20
2015,02,16,05,48,3.20
2015,02,16,05,49,3.20
2015,02,16,05,50,3.20
2015,02,16,05,51,3.20
2015,02,16,05,52,3.20
2015,02,16,05,53,3.20
2015,02,16,05,54,3.20
2015,02,16,05,55,3.20
2015,02,16,05,56,3.20
2015,02,16,05,57,3.10
2015,02,16,05,58,3.10
2015,02,16,05,59,3.10
2015,02,16,06,00,3.10
2015,02,16,06,01,3.10
2015,02,16,06,02,3.00
2015,02,16,06,03,3.00
2015,02,16,06,04,3.00
2015,02,16,06,05,3.00
2015,02,16,06,06,3.10
2015,02,16,06,07,3.00
2015,02,16,06,08,3.00
2015,02,16,06,09,3.00
2015,02,16,06,10,3.00
2015,02,16,06,11,3.00
2015,02,16,06,12,3.00
2015,02,16,06,13,3.00
2015,02,16,06,14,3.00
2015,02,16,06,15,3.10
2015,02,16,06,16,3.10
2015,02,16,06,17,3.10
2015,02,16,06,18,3.10
2015,02,16,06,19,3.10
2015,02,16,06,20,3.10
2015,02,16,06,21,3.10
2015,02,16,06,22,3.10
2015,02,16,06,23,3.00
2015,02,16,06,24,3.00
2015,02,16,06,25,3.00
2015,02,16,06,26,3.00
2015,02,16,06,27,2.90
2015,02,16,06,28,2.90
2015,02,16,06,29,2.90
2015,02,16,06,30,2.90
2015,02,16,06,31,2.90
2015,02,16,06,32,2.90
2015,02,16,06,33,2.90
2015,02,16,06,34,2.90
2015,02,16,06,35,2.90
2015,02,16,06,36,2.90
2015,02,16,06,37,2.90
2015,02,16,06,38,2.90
2015,02,16,06,39,2.90
2015,02,16,06,40,2.90
2015,02,16,06,41,2.90
2015,02,16,06,42,2.90
2015,02,16,06,43,2.90
2015,02,16,06,44,2.90
2015,02,16,06,45,2.90
2015,02,16,06,46,2.90
2015,02,16,06,47,2.90
2015,02,16,06,48,2.90
2015,02,16,06,49,2.90
2015,02,16,06,50,2.80
2015,02,16,06,51,2.80
2015,02,16,06,52,2.90
2015,02,16,06,53,2.90
2015,02,16,06,54,2.90
2015,02,16,06,55,2.90
2015,02,16,06,56,2.80
2015,02,16,06,57,2.80
2015,02,16,06,58,2.80
2015,02,16,06,59,2.80
2015,02,16,07,00,2.80
2015,02,16,07,01,2.80
2015,02,16,07,02,2.80
2015,02,16,07,03,2.80
2015,02,16,07,04,2.80
2015,02,16,07,05,2.80
2015,02,16,07,06,2.80
2015,02,16,07,07,2.80
2015,02,16,07,08,2.80
2015,02,16,07,09,2.80
2015,02,16,07,10,2.80
2015,02,16,07,11,2.80
2015,02,16,07,12,2.80
2015,02,16,07,13,2.80
2015,02,16,07,14,2.80
2015,02,16,07,15,2.80
2015,02,16,07,16,2.80
2015,02,16,07,17,2.90
2015,02,16,07,18,2.90
2015,02,16,07,19,2.90
2015,02,16,07,20,2.90
2015,02,16,07,21,2.90
2015,02,16,07,22,2.90
2015,02,16,07,23,2.80
2015,02,16,07,24,2.80
2015,02,16,07,25,2.80
2015,02,16,07,26,2.80
2015,02,16,07,27,2.80
2015,02,16,07,28,2.80
2015,02,16,07,29,2.70
2015,02,16,07,30,2.70
2015,02,16,07,31,2.70
2015,02,16,07,32,2.70
2015,02,16,07,33,2.70
2015,02,16,07,34,2.70
2015,02,16,07,35,2.70
2015,02,16,07,36,2.70
2015,02,16,07,37,2.70
2015,02,16,07,38,2.70
2015,02,16,07,39,2.70
2015,02,16,07,40,2.70
2015,02,16,07,41,2.70
2015,02,16,07,42,2.70
2015,02,16,07,43,2.70
2015,02,16,07,44,2.70
2015,02,16,07,45,2.70
2015,02,16,07,46,2.70
2015,02,16,07,47,2.70
2015,02,16,07,48,2.70
2015,02,16,07,49,2.70
2015,02,16,07,50,2.70
2015,02,16,07,51,2.70
2015,02,16,07,52,2.70
2015,02,16,07,53,2.70
2015,02,16,07,54,2.70
2015,02,16,07,55,2.70
2015,02,16,07,56,2.70
2015,02,16,07,57,2.80
2015,02,16,07,58,2.80
2015,02,16,07,59,2.80
2015,02,16,08,00,2.90
2015,02,16,08,01,2.90
2015,02,16,08,02,3.00
2015,02,16,08,03,3.00
2015,02,16,08,04,3.10
2015,02,16,08,05,3.20
2015,02,16,08,06,3.20
2015,02,16,08,07,3.20
2015,02,16,08,08,3.30
2015,02,16,08,09,3.30
2015,02,16,08,10,3.30
2015,02,16,08,11,3.30
2015,02,16,08,12,3.30
2015,02,16,08,13,3.30
2015,02,16,08,14,3.40
2015,02,16,08,15,3.40
2015,02,16,08,16,3.40
2015,02,16,08,17,3.40
2015,02,16,08,18,3.40
2015,02,16,08,19,3.40
2015,02,16,08,20,3.50
2015,02,16,08,21,3.50
2015,02,16,08,22,3.50
2015,02,16,08,23,3.60
2015,02,16,08,24,3.60
2015,02,16,08,25,3.60
2015,02,16,08,26,3.60
2015,02,16,08,27,3.70
2015,02,16,08,28,3.70
2015,02,16,08,29,3.70
2015,02,16,08,30,3.70
2015,02,16,08,31,3.70
2015,02,16,08,32,3.80
2015,02,16,08,33,3.80
2015,02,16,08,34,3.80
2015,02,16,08,35,3.80
2015,02,16,08,36,3.90
2015,02,16,08,37,3.90
2015,02,16,08,38,4.00
2015,02,16,08,39,4.00
2015,02,16,08,40,4.10
2015,02,16,08,41,4.10
2015,02,16,08,42,4.20
2015,02,16,08,43,4.20
2015,02,16,08,44,4.20
2015,02,16,08,45,4.20
2015,02,16,08,46,4.20
2015,02,16,08,47,4.20
2015,02,16,08,48,4.20
2015,02,16,08,49,4.20
2015,02,16,08,50,4.20
2015,02,16,08,51,4.20
2015,02,16,08,52,4.30
2015,02,16,08,53,4.30
2015,02,16,08,54,4.30
2015,02,16,08,55,4.30
2015,02,16,08,56,4.30
2015,02,16,08,57,4.30
2015,02,16,08,58,4.30
2015,02,16,08,59,4.30
2015,02,16,09,00,4.30
2015,02,16,09,01,4.30
2015,02,16,09,02,4.30
2015,02,16,09,03,4.30
2015,02,16,09,04,4.30
2015,02,16,09,05,4.40
2015,02,16,09,06,4.40
2015,02,16,09,07,4.40
2015,02,16,09,08,4.40
2015,02,16,09,09,4.40
2015,02,16,09,10,4.40
2015,02,16,09,11,4.40
2015,02,16,09,12,4.40
2015,02,16,09,13,4.40
2015,02,16,09,14,4.40
2015,02,16,09,15,4.40
2015,02,16,09,16,4.40
2015,02,16,09,17,4.40
2015,02,16,09,18,4.50
2015,02,16,09,19,4.50
2015,02,16,09,20,4.50
2015,02,16,09,21,4.50
2015,02,16,09,22,4.50
2015,02,16,09,23,4.60
2015,02,16,09,24,4.60
2015,02,16,09,25,4.60
2015,02,16,09,26,4.60
2015,02,16,09,27,4.70
2015,02,16,09,28,4.70
2015,02,16,09,29,4.80
2015,02,16,09,30,4.90
2015,02,16,09,31,4.90
2015,02,16,09,32,5.00
2015,02,16,09,33,5.10
2015,02,16,09,34,5.20
2015,02,16,09,35,5.30
2015,02,16,09,36,5.40
2015,02,16,09,37,5.40
2015,02,16,09,38,5.50
2015,02,16,09,39,5.60
2015,02,16,09,40,5.70
2015,02,16,09,41,5.70
2015,02,16,09,42,5.80
2015,02,16,09,43,5.80
2015,02,16,09,44,5.80
2015,02,16,09,45,5.80
2015,02,16,09,46,5.80
2015,02,16,09,47,5.80
2015,02,16,09,48,5.80
2015,02,16,09,49,5.80
2015,02,16,09,50,5.90
2015,02,16,09,51,5.90
2015,02,16,09,52,5.90
2015,02,16,09,53,5.90
2015,02,16,09,54,5.90
2015,02,16,09,55,6.00
2015,02,16,09,56,6.00
2015,02,16,09,57,6.10
2015,02,16,09,58,6.10
2015,02,16,09,59,6.10
2015,02,16,10,00,6.10
2015,02,16,10,01,6.10
2015,02,16,10,02,6.20
2015,02,16,10,03,6.20
2015,02,16,10,04,6.20
2015,02,16,10,05,6.20
2015,02,16,10,06,6.20
2015,02,16,10,07,6.20
2015,02,16,10,08,6.20
2015,02,16,10,09,6.20
2015,02,16,10,10,6.30
2015,02,16,10,11,6.30
2015,02,16,10,12,6.30
2015,02,16,10,13,6.30
2015,02,16,10,14,6.30
2015,02,16,10,15,6.40
2015,02,16,10,16,6.40
2015,02,16,10,17,6.40
2015,02,16,10,18,6.40
2015,02,16,10,19,6.50
2015,02,16,10,20,6.50
2015,02,16,10,21,6.50
2015,02,16,10,22,6.50
2015,02,16,10,23,6.60
2015,02,16,10,24,6.60
2015,02,16,10,25,6.60
2015,02,16,10,26,6.70
2015,02,16,10,27,6.70
2015,02,16,10,28,6.70
2015,02,16,10,29,6.80
2015,02,16,10,30,6.80
2015,02,16,10,31,6.80
2015,02,16,10,32,6.90
2015,02,16,10,33,6.90
2015,02,16,10,34,6.90
2015,02,16,10,35,6.90
2015,02,16,10,36,6.90
2015,02,16,10,37,7.00
2015,02,16,10,38,7.00
2015,02,16,10,39,7.00
2015,02,16,10,40,7.10
2015,02,16,10,41,7.10
2015,02,16,10,42,7.10
2015,02,16,10,43,7.10
2015,02,16,10,44,7.10
2015,02,16,10,45,7.10
2015,02,16,10,46,7.10
2015,02,16,10,47,7.10
2015,02,16,10,48,7.10
2015,02,16,10,49,7.20
2015,02,16,10,50,7.20
2015,02,16,10,51,7.20
2015,02,16,10,52,7.20
2015,02,16,10,53,7.20
2015,02,16,10,54,7.20
2015,02,16,10,55,7.20
2015,02,16,10,56,7.30
2015,02,16,10,57,7.30
2015,02,16,10,58,7.30
2015,02,16,10,59,7.30
2015,02,16,11,00,7.40
2015,02,16,11,01,7.40
2015,02,16,11,02,7.40
2015,02,16,11,03,7.30
2015,02,16,11,04,7.30
2015,02,16,11,05,7.30
2015,02,16,11,06,7.30
2015,02,16,11,07,7.30
2015,02,16,11,08,7.30
2015,02,16,11,09,7.30
2015,02,16,11,10,7.30
2015,02,16,11,11,7.30
2015,02,16,11,12,7.30
2015,02,16,11,13,7.30
2015,02,16,11,14,7.30
2015,02,16,11,15,7.30
2015,02,16,11,16,7.30
2015,02,16,11,17,7.30
2015,02,16,11,18,7.30
2015,02,16,11,19,7.40
2015,02,16,11,20,7.50
2015,02,16,11,21,7.50
2015,02,16,11,22,7.60
2015,02,16,11,23,7.60
2015,02,16,11,24,7.60
2015,02,16,11,25,7.60
2015,02,16,11,26,7.60
2015,02,16,11,27,7.60
2015,02,16,11,28,7.60
2015,02,16,11,29,7.60
2015,02,16,11,30,7.70
2015,02,16,11,31,7.70
2015,02,16,11,32,7.80
2015,02,16,11,33,7.80
2015,02,16,11,34,7.90
2015,02,16,11,35,7.90
2015,02,16,11,36,7.90
2015,02,16,11,37,7.90
2015,02,16,11,38,8.00
2015,02,16,11,39,8.00
2015,02,16,11,40,8.10
2015,02,16,11,41,8.00
2015,02,16,11,42,8.00
2015,02,16,11,43,8.00
2015,02,16,11,44,8.00
2015,02,16,11,45,8.00
2015,02,16,11,46,8.10
2015,02,16,11,47,8.10
2015,02,16,11,48,8.10
2015,02,16,11,49,8.10
2015,02,16,11,50,8.20
2015,02,16,11,51,8.20
2015,02,16,11,52,8.30
2015,02,16,11,53,8.40
2015,02,16,11,54,8.40
2015,02,16,11,55,8.50
2015,02,16,11,56,8.60
2015,02,16,11,57,8.60
2015,02,16,11,58,8.70
2015,02,16,11,59,8.70
2015,02,16,12,00,8.80
2015,02,16,12,01,8.90
2015,02,16,12,02,8.90
2015,02,16,12,03,9.00
2015,02,16,12,04,9.10
2015,02,16,12,05,9.10
2015,02,16,12,06,9.10
2015,02,16,12,07,9.10
2015,02,16,12,08,9.10
2015,02,16,12,09,9.10
2015,02,16,12,10,9.10
2015,02,16,12,11,9.10
2015,02,16,12,12,9.10
2015,02,16,12,13,9.10
2015,02,16,12,14,9.10
2015,02,16,12,15,9.10
2015,02,16,12,16,9.10
2015,02,16,12,17,9.10
2015,02,16,12,18,9.10
2015,02,16,12,19,9.10
2015,02,16,12,20,9.20
2015,02,16,12,21,9.20
2015,02,16,12,22,9.30
2015,02,16,12,23,9.30
2015,02,16,12,24,9.40
2015,02,16,12,25,9.50
2015,02,16,12,26,9.60
2015,02,16,12,27,9.70
2015,02,16,12,28,9.80
2015,02,16,12,29,9.80
2015,02,16,12,30,9.90
2015,02,16,12,31,10.00
2015,02,16,12,32,10.10
2015,02,16,12,33,10.10
2015,02,16,12,34,10.10
2015,02,16,12,35,10.10
2015,02,16,12,36,10.10
2015,02,16,12,37,10.10
2015,02,16,12,38,10.10
2015,02,16,12,39,10.10
2015,02,16,12,40,10.10
2015,02,16,12,41,10.10
2015,02,16,12,42,10.00
2015,02,16,12,43,10.00
2015,02,16,12,44,10.00
2015,02,16,12,45,10.00
2015,02,16,12,46,10.00
2015,02,16,12,47,10.10
2015,02,16,12,48,10.10
2015,02,16,12,49,10.10
2015,02,16,12,50,10.20
2015,02,16,12,51,10.20
2015,02,16,12,52,10.20
2015,02,16,12,53,10.20
2015,02,16,12,54,10.20
2015,02,16,12,55,10.20
2015,02,16,12,56,10.20
2015,02,16,12,57,10.30
2015,02,16,12,58,10.30
2015,02,16,12,59,10.40
2015,02,16,13,00,10.40
2015,02,16,13,01,10.50
2015,02,16,13,02,10.50
2015,02,16,13,03,10.50
2015,02,16,13,04,10.50
2015,02,16,13,05,10.60
2015,02,16,13,06,10.60
2015,02,16,13,07,10.60
2015,02,16,13,08,10.60
2015,02,16,13,09,10.70
2015,02,16,13,10,10.70
2015,02,16,13,11,10.70
2015,02,16,13,12,10.70
2015,02,16,13,13,10.60
2015,02,16,13,14,10.60
2015,02,16,13,15,10.50
2015,02,16,13,16,10.40
2015,02,16,13,17,10.40
2015,02,16,13,18,10.40
2015,02,16,13,19,10.40
2015,02,16,13,20,10.40
2015,02,16,13,21,10.50
2015,02,16,13,22,10.50
2015,02,16,13,23,10.60
2015,02,16,13,24,10.60
2015,02,16,13,25,10.70
2015,02,16,13,26,10.70
2015,02,16,13,27,10.70
2015,02,16,13,28,10.70
2015,02,16,13,29,10.70
2015,02,16,13,30,10.70
2015,02,16,13,31,10.70
2015,02,16,13,32,10.60
2015,02,16,13,33,10.60
2015,02,16,13,34,10.60
2015,02,16,13,35,10.70
2015,02,16,13,36,10.70
2015,02,16,13,37,10.70
2015,02,16,13,38,10.70
2015,02,16,13,39,10.80
2015,02,16,13,40,10.80
2015,02,16,13,41,10.80
2015,02,16,13,42,10.80
2015,02,16,13,43,10.80
2015,02,16,13,44,10.80
2015,02,16,13,45,10.90
2015,02,16,13,46,10.90
2015,02,16,13,47,10.90
2015,02,16,13,48,10.90
2015,02,16,13,49,10.90
2015,02,16,13,50,10.90
2015,02,16,13,51,10.90
2015,02,16,13,52,10.90
2015,02,16,13,53,10.90
2015,02,16,13,54,11.00
2015,02,16,13,55,11.00
2015,02,16,13,56,11.10
2015,02,16,13,57,11.10
2015,02,16,13,58,11.20
2015,02,16,13,59,11.20
2015,02,16,14,00,11.30
2015,02,16,14,01,11.30
2015,02,16,14,02,11.40
2015,02,16,14,03,11.40
2015,02,16,14,04,11.40
2015,02,16,14,05,11.40
2015,02,16,14,06,11.40
2015,02,16,14,07,11.40
2015,02,16,14,08,11.40
2015,02,16,14,09,11.40
2015,02,16,14,10,11.40
2015,02,16,14,11,11.40
2015,02,16,14,12,11.40
2015,02,16,14,13,11.30
2015,02,16,14,14,11.30
2015,02,16,14,15,11.30
2015,02,16,14,16,11.30
2015,02,16,14,17,11.30
2015,02,16,14,18,11.30
2015,02,16,14,19,11.30
2015,02,16,14,20,11.30
2015,02,16,14,21,11.20
2015,02,16,14,22,11.20
2015,02,16,14,23,11.10
2015,02,16,14,24,11.10
2015,02,16,14,25,11.10
2015,02,16,14,26,11.10
2015,02,16,14,27,11.10
2015,02,16,14,28,11.10
2015,02,16,14,29,11.10
2015,02,16,14,30,11.20
2015,02,16,14,31,11.20
2015,02,16,14,32,11.30
2015,02,16,14,33,11.30
2015,02,16,14,34,11.40
2015,02,16,14,35,11.40
2015,02,16,14,36,11.40
2015,02,16,14,37,11.40
2015,02,16,14,38,11.50
2015,02,16,14,39,11.50
2015,02,16,14,40,11.50
2015,02,16,14,41,11.60
2015,02,16,14,42,11.60
2015,02,16,14,43,11.60
2015,02,16,14,44,11.70
2015,02,16,14,45,11.70
2015,02,16,14,46,11.70
2015,02,16,14,47,11.70
2015,02,16,14,48,11.70
2015,02,16,14,49,11.70
2015,02,16,14,50,11.70
2015,02,16,14,51,11.70
2015,02,16,14,52,11.70
2015,02,16,14,53,11.60
2015,02,16,14,54,11.60
2015,02,16,14,55,11.50
2015,02,16,14,56,11.40
2015,02,16,14,57,11.40
2015,02,16,14,58,11.30
2015,02,16,14,59,11.30
2015,02,16,15,00,11.30
2015,02,16,15,01,11.30
2015,02,16,15,02,11.30
2015,02,16,15,03,11.30
2015,02,16,15,04,11.30
2015,02,16,15,05,11.20
2015,02,16,15,06,11.20
2015,02,16,15,07,11.20
2015,02,16,15,08,11.20
2015,02,16,15,09,11.20
2015,02,16,15,10,11.10
2015,02,16,15,11,11.10
2015,02,16,15,12,11.10
2015,02,16,15,13,11.10
2015,02,16,15,14,11.10
2015,02,16,15,15,11.20
2015,02,16,15,16,11.20
2015,02,16,15,17,11.20
2015,02,16,15,18,11.20
2015,02,16,15,19,11.20
2015,02,16,15,20,11.20
2015,02,16,15,21,11.20
2015,02,16,15,22,11.20
2015,02,16,15,23,11.20
2015,02,16,15,24,11.20
2015,02,16,15,25,11.20
2015,02,16,15,26,11.10
2015,02,16,15,27,11.10
2015,02,16,15,28,11.10
2015,02,16,15,29,11.20
2015,02,16,15,30,11.20
2015,02,16,15,31,11.20
2015,02,16,15,32,11.20
2015,02,16,15,33,11.20
2015,02,16,15,34,11.20
2015,02,16,15,35,11.20
2015,02,16,15,36,11.30
2015,02,16,15,37,11.30
2015,02,16,15,38,11.30
2015,02,16,15,39,11.30
2015,02,16,15,40,11.30
2015,02,16,15,41,11.30
2015,02,16,15,42,11.30
2015,02,16,15,43,11.30
2015,02,16,15,44,11.30
2015,02,16,15,45,11.30
2015,02,16,15,46,11.30
2015,02,16,15,47,11.30
2015,02,16,15,48,11.30
2015,02,16,15,49,11.30
2015,02,16,15,50,11.30
2015,02,16,15,51,11.30
2015,02,16,15,52,11.30
2015,02,16,15,53,11.30
2015,02,16,15,54,11.20
2015,02,16,15,55,11.20
2015,02,16,15,56,11.10
2015,02,16,15,57,11.10
2015,02,16,15,58,11.00
2015,02,16,15,59,11.00
2015,02,16,16,00,10.90
2015,02,16,16,01,10.80
2015,02,16,16,02,10.80
2015,02,16,16,03,10.70
2015,02,16,16,04,10.70
2015,02,16,16,05,10.70
2015,02,16,16,06,10.70
2015,02,16,16,07,10.70
2015,02,16,16,08,10.70
2015,02,16,16,09,10.70
2015,02,16,16,10,10.80
2015,02,16,16,11,10.80
2015,02,16,16,12,10.80
2015,02,16,16,13,10.80
2015,02,16,16,14,10.80
2015,02,16,16,15,10.80
2015,02,16,16,16,10.80
2015,02,16,16,17,10.80
2015,02,16,16,18,10.80
2015,02,16,16,19,10.80
2015,02,16,16,20,10.80
2015,02,16,16,21,10.80
2015,02,16,16,22,10.80
2015,02,16,16,23,10.80
2015,02,16,16,24,10.80
2015,02,16,16,25,10.80
2015,02,16,16,26,10.80
2015,02,16,16,27,10.90
2015,02,16,16,28,10.90
2015,02,16,16,29,10.90
2015,02,16,16,30,10.90
2015,02,16,16,31,10.90
2015,02,16,16,32,11.00
2015,02,16,16,33,11.00
2015,02,16,16,34,11.00
2015,02,16,16,35,11.00
2015,02,16,16,36,11.00
2015,02,16,16,37,11.10
2015,02,16,16,38,11.10
2015,02,16,16,39,11.10
2015,02,16,16,40,11.10
2015,02,16,16,41,11.10
2015,02,16,16,42,11.10
2015,02,16,16,43,11.10
2015,02,16,16,44,11.00
2015,02,16,16,45,11.00
2015,02,16,16,46,11.00
2015,02,16,16,47,11.00
2015,02,16,16,48,11.10
2015,02,16,16,49,11.10
2015,02,16,16,50,11.10
2015,02,16,16,51,11.10
2015,02,16,16,52,11.10
2015,02,16,16,53,11.00
2015,02,16,16,54,10.90
2015,02,16,16,55,10.80
2015,02,16,16,56,10.70
2015,02,16,16,57,10.60
2015,02,16,16,58,10.50
2015,02,16,16,59,10.50
2015,02,16,17,00,10.40
2015,02,16,17,01,10.30
2015,02,16,17,02,10.30
2015,02,16,17,03,10.30
2015,02,16,17,04,10.20
2015,02,16,17,05,10.20
2015,02,16,17,06,10.10
2015,02,16,17,07,10.10
2015,02,16,17,08,10.10
2015,02,16,17,09,10.10
2015,02,16,17,10,10.00
2015,02,16,17,11,10.00
2015,02,16,17,12,10.00
2015,02,16,17,13,9.90
2015,02,16,17,14,9.90
2015,02,16,17,15,9.90
2015,02,16,17,16,9.90
2015,02,16,17,17,9.90
2015,02,16,17,18,9.90
2015,02,16,17,19,9.90
2015,02,16,17,20,9.90
2015,02,16,17,21,9.90
2015,02,16,17,22,9.80
2015,02,16,17,23,9.80
2015,02,16,17,24,9.80
2015,02,16,17,25,9.80
2015,02,16,17,26,9.80
2015,02,16,17,27,9.80
2015,02,16,17,28,9.80
2015,02,16,17,29,9.70
2015,02,16,17,30,9.70
2015,02,16,17,31,9.70
2015,02,16,17,32,9.60
2015,02,16,17,33,9.60
2015,02,16,17,34,9.60
2015,02,16,17,35,9.60
2015,02,16,17,36,9.60
2015,02,16,17,37,9.60
2015,02,16,17,38,9.60
2015,02,16,17,39,9.60
2015,02,16,17,40,9.60
2015,02,16,17,41,9.60
2015,02,16,17,42,9.60
2015,02,16,17,43,9.60
2015,02,16,17,44,9.60
2015,02,16,17,45,9.60
2015,02,16,17,46,9.60
2015,02,16,17,47,9.50
2015,02,16,17,48,9.50
2015,02,16,17,49,9.50
2015,02,16,17,50,9.40
2015,02,16,17,51,9.40
2015,02,16,17,52,9.40
2015,02,16,17,53,9.40